Location: Berg
(47.2344°N, 9.5296°E)
Time: 11:42:39
(UTC+00:00)

Aureole 3 - Pass Details

Date: 24 January 2021
Orbit: 381 x 1231 km, 82.5° (Epoch: 06 March)

Event Time Altitude Azimuth Distance (km) Brightness Sun altitude
Rises 17:10:58 0° 354° (N) 2,536 6.6 -10.1°
Reaches altitude 10° 17:13:13 10° 0° (N) 1,564 5.5 -10.4°
Maximum altitude 17:16:27 49° 77° (ENE) 530 2.8 -11.0°
Drops below altitude 10° 17:19:21 10° 154° (SSE) 1,408 5.3 -11.4°
Sets 17:21:17 0° 161° (SSE) 2,248 6.4 -11.7°
